ZHONGXING-12

Last updated on Thu Oct 30 2025 00:02:49 GMT+0000 (Coordinated Universal Time)

1 39017U 12067A 25302.55982484 -.00000197 00000+0 00000+0 0 9999 2 39017 0.0190 240.8467 0002939 345.5544 100.7955 1.00270564 47199
UTC large
Height (km)
Speed (km/s)
/
Latitude / Longitude
Inclination (degrees)
Orbital Period (minutes)
Azimuth
Elevation
Range (km)
Doppler Factor

Next 0 passes for location: London (51.5072 / 0.1276)

Sorry there are no passes over London.